OAE533 KBFI-KDOV

Flight info

Callsign OAE533
Flight time N/A
Altitude 37000
Route ZADON ZELAK ZIRAN ZAXBY BLOWS SWTHN Q156 HSTIN JIBOR J90 OBK DOWER AIR LUNDY ARLFT2
Aircraft B772/H-SDE2E3FGHIJ5LORVWXY/LB1D1

Departure

Time 2026-04-30 00:18
Airport King County International Airport - Boeing Field (KBFI)

Arrival

Time N/A
Airport Dover Civil Air Terminal/Dover Air Force Base (KDOV)
Time Latitude Longitude Altitude Speed Heading
2026-04-30 00:09 47.54012 -122.31377 32 ft 0 kts 180°
2026-04-30 00:13 47.54011 -122.31377 32 ft 0 kts 180°
2026-04-30 00:13 47.53957 -122.31357 31 ft 10 kts 137°
2026-04-30 00:13 47.53965 -122.31299 32 ft 10 kts 61°
2026-04-30 00:13 47.53933 -122.31185 31 ft 21 kts 148°
2026-04-30 00:14 47.53803 -122.31076 32 ft 22 kts 150°
2026-04-30 00:14 47.53672 -122.30967 31 ft 22 kts 151°
2026-04-30 00:14 47.53542 -122.30856 30 ft 22 kts 150°
2026-04-30 00:14 47.53412 -122.30745 30 ft 22 kts 150°
2026-04-30 00:15 47.53282 -122.30635 30 ft 22 kts 150°
2026-04-30 00:15 47.53152 -122.30525 30 ft 22 kts 150°
2026-04-30 00:15 47.53010 -122.30406 31 ft 26 kts 150°
2026-04-30 00:15 47.52839 -122.30263 30 ft 31 kts 150°
2026-04-30 00:16 47.52639 -122.30092 30 ft 35 kts 150°
2026-04-30 00:16 47.52433 -122.29919 30 ft 33 kts 150°
2026-04-30 00:16 47.52245 -122.29761 32 ft 30 kts 152°
2026-04-30 00:16 47.52061 -122.29616 32 ft 30 kts 150°
2026-04-30 00:17 47.51880 -122.29462 31 ft 30 kts 150°
2026-04-30 00:17 47.51699 -122.29309 31 ft 29 kts 150°
2026-04-30 00:17 47.51678 -122.29199 31 ft 11 kts 55°
2026-04-30 00:17 47.51749 -122.29189 30 ft 14 kts 334°
2026-04-30 00:18 47.51952 -122.29359 28 ft 62 kts 330°
2026-04-30 00:18 47.52584 -122.29897 39 ft 143 kts 328°
2026-04-30 00:18 47.53498 -122.30666 821 ft 149 kts 330°
2026-04-30 00:18 47.54430 -122.31449 1454 ft 158 kts 332°
2026-04-30 00:19 47.55430 -122.32301 1608 ft 187 kts 332°
2026-04-30 00:19 47.56690 -122.33346 1831 ft 219 kts 337°
2026-04-30 00:19 47.58256 -122.33735 2314 ft 243 kts
2026-04-30 00:19 47.59831 -122.32751 3242 ft 253 kts 37°
2026-04-30 00:20 47.61009 -122.30820 4202 ft 256 kts 52°
2026-04-30 00:20 47.62077 -122.28652 5084 ft 262 kts 54°
2026-04-30 00:20 47.63161 -122.26456 6036 ft 267 kts 54°
2026-04-30 00:20 47.64299 -122.24239 6892 ft 272 kts 54°
2026-04-30 00:21 47.65463 -122.22010 7786 ft 275 kts 54°
2026-04-30 00:21 47.66637 -122.19767 8735 ft 275 kts 54°
2026-04-30 00:21 47.67831 -122.17513 9554 ft 281 kts 54°
2026-04-30 00:21 47.69041 -122.15230 10397 ft 284 kts 54°
2026-04-30 00:22 47.70306 -122.12822 10716 ft 309 kts 54°
2026-04-30 00:22 47.71647 -122.10245 11387 ft 322 kts 53°
2026-04-30 00:22 47.73016 -122.07565 12410 ft 326 kts 53°
2026-04-30 00:22 47.74373 -122.04848 13672 ft 330 kts 53°
2026-04-30 00:23 47.75711 -122.02083 14874 ft 332 kts 53°
2026-04-30 00:23 47.77053 -121.99247 15933 ft 337 kts 53°
2026-04-30 00:23 47.78402 -121.96345 16921 ft 346 kts 53°
2026-04-30 00:23 47.79779 -121.93360 17920 ft 353 kts 54°
2026-04-30 00:24 47.81173 -121.90321 18919 ft 358 kts 54°
2026-04-30 00:24 47.82580 -121.87236 19852 ft 363 kts 54°
2026-04-30 00:24 47.84003 -121.84103 20791 ft 368 kts 54°
2026-04-30 00:24 47.85442 -121.80921 21704 ft 373 kts 54°
2026-04-30 00:25 47.86899 -121.77687 22621 ft 379 kts 54°
2026-04-30 00:25 47.88377 -121.74398 23544 ft 385 kts 54°
2026-04-30 00:25 47.89871 -121.71059 24357 ft 390 kts 53°
2026-04-30 00:25 47.91361 -121.67672 25195 ft 392 kts 53°
2026-04-30 00:26 47.92813 -121.64279 26064 ft 394 kts 53°
2026-04-30 00:26 47.94262 -121.60797 26953 ft 397 kts 53°
2026-04-30 00:26 47.95703 -121.57254 27771 ft 402 kts 53°
2026-04-30 00:26 47.97131 -121.53652 28565 ft 405 kts 53°
2026-04-30 00:27 47.98551 -121.49979 29314 ft 410 kts 53°
2026-04-30 00:27 47.99963 -121.46263 30067 ft 414 kts 53°
2026-04-30 00:27 48.01352 -121.42533 30703 ft 416 kts 53°
2026-04-30 00:27 48.02755 -121.38721 31228 ft 421 kts 53°
2026-04-30 00:28 48.04192 -121.34808 31720 ft 427 kts 53°
2026-04-30 00:28 48.05604 -121.30952 32211 ft 431 kts 53°
2026-04-30 00:28 48.07047 -121.27000 32736 ft 435 kts 54°
2026-04-30 00:28 48.08503 -121.23016 33234 ft 439 kts 54°
2026-04-30 00:29 48.09971 -121.18995 33706 ft 442 kts 53°
2026-04-30 00:29 48.11449 -121.14937 34180 ft 446 kts 53°
2026-04-30 00:29 48.12933 -121.10841 34628 ft 449 kts 54°
2026-04-30 00:29 48.14424 -121.06712 34979 ft 453 kts 54°
2026-04-30 00:30 48.15931 -121.02537 35311 ft 458 kts 54°
2026-04-30 00:30 48.17401 -120.98464 35647 ft 460 kts 54°
2026-04-30 00:30 48.18929 -120.94232 36005 ft 463 kts 54°
2026-04-30 00:30 48.20458 -120.89991 36481 ft 462 kts 53°
2026-04-30 00:31 48.21980 -120.85743 36888 ft 463 kts 53°
2026-04-30 00:31 48.23274 -120.81315 37002 ft 472 kts 66°
2026-04-30 00:31 48.23893 -120.76401 37268 ft 487 kts 77°
2026-04-30 00:31 48.23989 -120.71256 37551 ft 500 kts 86°
2026-04-30 00:32 48.23451 -120.66053 37926 ft 511 kts 101°
2026-04-30 00:32 48.22329 -120.60971 38263 ft 515 kts 104°
2026-04-30 00:32 48.21084 -120.55923 38595 ft 517 kts 105°
2026-04-30 00:32 48.19806 -120.50884 39031 ft 516 kts 105°
2026-04-30 00:33 48.18533 -120.45856 39328 ft 516 kts 106°
2026-04-30 00:33 48.17279 -120.40842 39849 ft 511 kts 106°
2026-04-30 00:33 48.16057 -120.35870 40358 ft 507 kts 106°
2026-04-30 00:33 48.14857 -120.30898 40631 ft 509 kts 105°
2026-04-30 00:34 48.13665 -120.25908 40910 ft 509 kts 105°
2026-04-30 00:34 48.12478 -120.20915 41154 ft 511 kts 106°
2026-04-30 00:34 48.11282 -120.15886 41185 ft 515 kts 106°
2026-04-30 00:35 48.08875 -120.05837 41186 ft 509 kts 106°
2026-04-30 00:35 48.06922 -119.97751 41189 ft 507 kts 106°
2026-04-30 00:36 48.04516 -119.87837 41181 ft 507 kts 106°
2026-04-30 00:36 48.02101 -119.77925 41192 ft 508 kts 106°
2026-04-30 00:37 47.99677 -119.68015 41186 ft 508 kts 107°
2026-04-30 00:37 47.97245 -119.58126 41189 ft 507 kts 107°
2026-04-30 00:38 47.94811 -119.48270 41183 ft 506 kts 107°